星链-31010 (STARLINK-31010 )

导读

STARLINK-31010是美国太空探索技术公司(SpaceX)星链互联网卫星项目中的一颗卫星,于北京时间2023年12月7日发射入轨。作为星链星座的组成部分,它旨在为全球提供高速低延迟互联网服务,尤其服务偏远地区和网络基础设施薄弱区域,进一步扩充了星链星座的在轨运行卫星规模,推动全球卫星互联网组网进程。

基本信息
目录编号:
58519
目录名称:
STARLINK-31010
国际标识:
2023-191M
轨道中心:
EARTH
卫星名称:
星链-31010
卫星全名:
星链-31010 (STARLINK-31010 )
卫星状态:
在轨 (已飞行1003 天)
发射日期:
2023-12-07 UTC
国别 :
美国 (US)
星等 :
--
轨道信息
数据来源 国际轨道数据 AOE轨道数据
星历时间 2026-09-05T11:18:11+0800
10小时前
查看轨道信息
2026-09-04T00:00:00+0800
1天前
查看轨道信息
半长轴 6861.179km 6861.205km
偏心率 0.00007 0.0000159
轨道倾角 43.001° 43.000°
近地点辐角 263.091° 179.250°
升交点赤经 170.113° 178.421°
平近点角 96.986° 2.121°
近地点 482.561km 482.958km
远地点 483.523km 483.178km
周期 94.267分钟 94.267分钟
每日圈数 15.275827 15.275737
详细信息
固有亮度:
5
最大亮度:
0.3
卫星平台:
Starlink v2.0 mini
覆盖范围:
全球
运营商:
太空探索技术公司
运营商所在国:
美国
制造商(研发单位):
太空探索技术公司
制造商所在国:
美国
使用方式:
暂无
卫星简介
星链(Starlink)计划是由太空探索技术公司(SpaceX)提出的一个巨型低轨卫星互联网星座项目,计划在2019年至2024年间在太空搭建由约1.2万颗卫星组成的“星链”网络,其中1584颗将部署在地球上空550千米处的近地轨道,并从2020年开始工作。该卫星仍在工作。
2D轨道图
3D轨道图
轨道高度分析图
轨道倾角分析图
轨道综合分析图
查看轨道综合分析图